Regional Weather Roundup
Issued by NWS

Home | Current Version | Previous Version | Graphics & Text | Print | Product List | Glossary On
Versions: 1 2 3 4 5 6 7 8 9 10 11 12 13 14 15 16 17 18 19 20 21 22 23 24 25 26 27
000
ASUS45 KCYS 190710
RWRWY

WYOMING REGIONAL WEATHER ROUNDUP
NATIONAL WEATHER SERVICE CHEYENNE WY
1200 AM MST THU JAN 19 2017

NOTE:  "FAIR" INDICATES FEW OR NO CLOUDS BELOW 12,000 FEET
WITH NO SIGNIFICANT WEATHER AND/OR OBSTRUCTIONS TO VISIBILITY.

WYZ001-190800-
YELLOWSTONE NATIONAL PARK

CITY           SKY/WX    TMP DP  RH WIND       PRES   REMARKS
LK YELLOWSTONE   N/A     11   9  92 CALM      29.79F
W YELLOWSTONE  NOT AVBL

$$
WYZ002>013-054>058-071-098>099-190800-
NORTHERN WYOMING

CITY           SKY/WX    TMP DP  RH WIND       PRES   REMARKS
JACKSON        CLOUDY     9   7  92 CALM      29.83F
CODY           FAIR      19  13  77 NE5       29.64F WCI  12
GREYBULL       FAIR       6   2  83 VRB3      29.69F
WORLAND        FAIR      10   9  95 NE3       29.68S
SHERIDAN       FAIR      21  16  81 VRB6      29.58F WCI  13
BUFFALO        FAIR      38  19  46 W10       29.60F WCI  31
GILLETTE       FAIR      34  20  56 SW16      29.59F WCI  24
HULETT         FAIR      34  21  60 SW10      29.59F WCI  26
NEWCASTLE      FAIR      27  18  69 CALM      29.65F

$$
WYZ014>020-022>026-101>103-190800-
CENTRAL WYOMING

CITY           SKY/WX    TMP DP  RH WIND       PRES   REMARKS
BIG PINEY      CLOUDY    -3  -7  82 NE8       29.87S WCI -18
PINEDALE       PTSUNNY   -8 -11  84 NW5       29.86F WCI -19
DUBOIS         NOT AVBL
LANDER         FAIR      13   8  81 W6        29.74F WCI   4
RIVERTON       FAIR       9   5  84 W6        29.76F WCI  -1
CASPER         FAIR      32  17  54 SW26G37   29.69F WCI  18
DOUGLAS        FAIR      28  17  63 N10       29.66F WCI  19

$$
WYZ021-027>030-104>119-190800-
SOUTHERN WYOMING

CITY           SKY/WX    TMP DP  RH WIND       PRES   REMARKS
EVANSTON       MOCLDY    25   9  50 S6        29.81F WCI  18
ROCK SPRINGS   FAIR       5   3  91 NE5       29.84F WCI  -4
RAWLINS        FAIR      29  17  61 SW10      29.84F WCI  20
LARAMIE        FAIR      13   9  84 NE5       29.77F WCI   5
CHEYENNE       FAIR      36  16  44 W13       29.67F WCI  27
TORRINGTON     FAIR      25  17  72 N5        29.63F WCI  19

$$




USA.gov is the U.S. government's official web portal to all federal, state and local government web resources and services.